Location: Wien
(48.2082°N, 16.3738°E)
Time: 10:51:06
(UTC+01:00)

A-11 Canister half - All Passes

Search period start: 22 February 2024 00:00
Search period end: 03 March 2024 00:00
Orbit: 1526 x 1682 km, 47.3° (Epoch: 21 February)

Date Brightness Start Highest point End Pass type
(mag) Time Alt. Az. Time Alt. Az. Time Alt. Az.
22 Feb - 00:54:56 10° W 01:04:18 85° S 01:13:40 10° E visible
22 Feb - 02:59:55 10° WNW 03:08:57 58° SSW 03:18:03 10° SE visible
22 Feb - 05:05:45 10° W 05:12:27 23° SW 05:19:15 10° S visible
22 Feb - 20:25:30 10° SSW 20:33:42 34° SE 20:41:45 10° ENE visible
22 Feb - 22:28:20 10° WSW 22:37:42 71° SSE 22:46:56 10° ENE visible
23 Feb - 00:33:11 10° W 00:42:34 85° S 00:51:55 10° E visible
23 Feb - 02:38:11 10° WNW 02:47:15 60° SSW 02:56:23 10° SE visible
23 Feb - 04:43:54 10° W 04:50:49 24° SW 04:57:48 10° S visible
23 Feb - 20:03:56 10° SSW 20:12:01 33° SE 20:19:58 10° ENE visible
23 Feb - 22:06:36 10° WSW 22:15:59 70° SSE 22:25:12 10° ENE visible
24 Feb - 00:11:25 10° W 00:20:50 86° S 00:30:11 10° E night (unlit)
24 Feb - 02:16:26 10° WNW 02:25:33 61° SSW 02:34:41 10° SE visible
24 Feb - 04:22:04 10° W 04:29:10 25° SW 04:36:20 10° S visible
24 Feb - 19:42:22 10° SSW 19:50:22 31° SE 19:58:11 10° E visible
24 Feb - 21:44:53 10° WSW 21:54:15 68° SSE 22:03:28 10° ENE visible
24 Feb - 23:49:41 10° W 23:59:05 86° S 00:08:27 10° E visible
25 Feb - 01:54:42 10° WNW 02:03:50 63° SSW 02:13:00 10° SE visible
25 Feb - 04:00:15 10° W 04:07:31 27° SW 04:14:51 10° S visible
25 Feb - 19:20:50 10° SSW 19:28:42 30° SE 19:36:24 10° E visible
25 Feb - 21:23:10 10° SW 21:32:32 67° SSE 21:41:44 10° ENE visible
25 Feb - 23:27:55 10° W 23:37:22 86° S 23:46:42 10° E visible
26 Feb - 01:32:58 10° WNW 01:42:08 65° SSW 01:51:19 10° SE visible
26 Feb - 03:38:26 10° W 03:45:51 28° SW 03:53:22 10° S visible
26 Feb - 18:59:19 10° S 19:07:02 29° SE 19:14:36 10° E visible
26 Feb - 21:01:27 10° SW 21:10:50 65° SSE 21:20:01 10° ENE visible
26 Feb - 23:06:10 10° W 23:15:38 86° S 23:24:58 10° E visible
27 Feb - 01:11:14 10° WNW 01:20:26 66° SSW 01:29:37 10° SE visible
27 Feb - 03:16:37 10° W 03:24:12 29° SW 03:31:52 10° S visible
27 Feb - 18:37:48 10° S 18:45:23 27° SE 18:52:48 10° E visible
27 Feb - 20:39:45 10° SW 20:49:07 63° SSE 20:58:17 10° ENE visible
27 Feb - 22:44:25 10° W 22:53:53 86° S 23:03:14 10° E visible
28 Feb - 00:49:29 10° WNW 00:58:44 68° SSW 01:07:56 10° ESE night (unlit)
28 Feb - 02:54:50 10° W 03:02:34 31° SW 03:10:20 10° SSE visible
28 Feb - 18:16:18 10° S 18:23:43 26° SE 18:30:59 10° E visible
28 Feb - 20:18:03 10° SW 20:27:25 62° SSE 20:36:33 10° ENE visible
28 Feb - 22:22:39 10° W 22:32:09 86° S 22:41:30 10° E visible
29 Feb - 00:27:44 10° WNW 00:37:01 70° SSW 00:46:13 10° ESE visible
29 Feb - 02:33:02 10° W 02:40:54 32° SW 02:48:48 10° SSE visible
29 Feb - 17:54:48 10° S 18:02:04 25° SE 18:09:10 10° E visible
29 Feb - 19:56:21 10° SW 20:05:42 60° SSE 20:14:49 10° ENE visible
29 Feb - 22:00:54 10° W 22:10:25 85° S 22:19:46 10° E visible
01 Mar - 00:06:00 10° WNW 00:15:18 71° SSW 00:24:32 10° ESE visible
01 Mar - 02:11:15 10° WNW 02:19:14 34° SW 02:27:16 10° SSE night (unlit)
01 Mar - 17:33:21 10° S 17:40:24 23° SE 17:47:20 10° E daylight
01 Mar - 19:34:39 10° SW 19:43:59 58° SSE 19:53:06 10° ENE visible
01 Mar - 21:39:08 10° W 21:48:41 85° S 21:58:02 10° E visible
01 Mar - 23:44:14 10° W 23:53:35 73° SSW 00:02:49 10° ESE visible
02 Mar - 01:49:28 10° WNW 01:57:35 35° SW 02:05:43 10° SSE night (unlit)
02 Mar - 17:11:54 10° S 17:18:46 22° SE 17:25:29 10° E daylight
02 Mar - 19:12:57 10° SW 19:22:17 57° SSE 19:31:22 10° ENE visible
02 Mar - 21:17:23 10° W 21:26:56 85° S 21:36:18 10° E visible
02 Mar - 23:22:29 10° W 23:31:52 74° SSW 23:41:06 10° ESE visible
